Precipitable_Water
0.40 0.41 0.42 0.41 0.40 0.39 0.39 0.40 0.36 0.34 0.36 0.35 0.35 0.42 0.46 0.52 0.58 0.66 0.73 0.78 0.80 0.78 0.85 0.89 0.89 0.87 0.86 0.86 0.86 0.87 0.80 0.77 0.76 0.74 0.72 0.71 0.69 0.67 0.65 0.63 0.61 0.56 0.51 0.48
0.39 0.42 0.42 0.40 0.41 0.37 0.36 0.37 0.37 0.39 0.34 0.37 0.40 0.43 0.45 0.48 0.49 0.63 0.76 0.81 0.86 0.84 0.83 0.79 0.92 0.95 0.92 0.88 0.90 0.92 0.84 0.76 0.80 0.73 0.70 0.67 0.65 0.62 0.60 0.57 0.53 0.50 0.47 0.47
0.30 0.36 0.38 0.34 0.33 0.37 0.37 0.38 0.37 0.34 0.39 0.43 0.41 0.44 0.43 0.47 0.58 0.55 0.66 0.74 0.76 0.77 0.78 0.79 0.76 0.90 1.00 0.92 0.93 0.89 0.85 0.81 0.79 0.71 0.67 0.62 0.62 0.57 0.54 0.51 0.49 0.47 0.47 0.46
0.31 0.36 0.25 0.33 0.40 0.39 0.37 0.41 0.49 0.46 0.47 0.50 0.47 0.50 0.54 0.58 0.58 0.61 0.68 0.70 0.76 0.76 0.73 0.76 0.79 0.84 0.88 0.91 0.99 0.93 0.88 0.85 0.81 0.72 0.62 0.60 0.57 0.51 0.49 0.49 0.47 0.47 0.48 0.46
0.28 0.27 0.31 0.32 0.37 0.37 0.36 0.36 0.44 0.41 0.43 0.44 0.45 0.45 0.51 0.59 0.60 0.53 0.56 0.60 0.66 0.74 0.79 0.80 0.81 0.77 0.78 0.84 0.81 0.95 0.87 0.84 0.76 0.70 0.59 0.58 0.51 0.48 0.48 0.46 0.46 0.47 0.45 0.40
0.30 0.23 0.20 0.28 0.42 0.44 0.45 0.30 0.43 0.41 0.41 0.40 0.41 0.33 0.42 0.52 0.50 0.45 0.40 0.42 0.47 0.53 0.59 0.64 0.71 0.73 0.71 0.74 0.79 0.79 0.78 0.81 0.73 0.67 0.62 0.55 0.51 0.51 0.51 0.49 0.47 0.46 0.42 0.41
0.24 0.23 0.24 0.33 0.38 0.38 0.25 0.26 0.40 0.39 0.35 0.34 0.34 0.41 0.46 0.46 0.44 0.43 0.44 0.41 0.41 0.44 0.50 0.55 0.60 0.66 0.65 0.65 0.63 0.70 0.79 0.80 0.72 0.66 0.62 0.59 0.56 0.56 0.55 0.52 0.50 0.44 0.42 0.41
0.24 0.20 0.17 0.36 0.32 0.24 0.28 0.31 0.32 0.27 0.26 0.26 0.28 0.30 0.33 0.34 0.35 0.36 0.37 0.41 0.43 0.41 0.44 0.50 0.60 0.61 0.59 0.59 0.67 0.71 0.73 0.79 0.69 0.68 0.64 0.62 0.62 0.60 0.58 0.54 0.50 0.45 0.42 0.39
0.18 0.19 0.32 0.28 0.24 0.24 0.22 0.21 0.23 0.21 0.22 0.24 0.22 0.22 0.25 0.28 0.30 0.31 0.33 0.33 0.36 0.41 0.42 0.49 0.54 0.57 0.55 0.59 0.72 0.69 0.71 0.70 0.66 0.66 0.65 0.65 0.64 0.62 0.58 0.55 0.50 0.43 0.39 0.38
0.15 0.17 0.18 0.19 0.18 0.16 0.14 0.14 0.15 0.17 0.19 0.20 0.22 0.24 0.24 0.24 0.27 0.30 0.32 0.30 0.32 0.36 0.38 0.43 0.52 0.57 0.57 0.64 0.67 0.68 0.63 0.62 0.64 0.65 0.63 0.64 0.65 0.63 0.60 0.56 0.49 0.40 0.39 0.38
0.19 0.19 0.17 0.16 0.15 0.15 0.19 0.21 0.20 0.22 0.22 0.23 0.24 0.25 0.24 0.23 0.24 0.27 0.29 0.27 0.29 0.30 0.37 0.42 0.50 0.56 0.58 0.62 0.65 0.62 0.64 0.61 0.62 0.65 0.64 0.63 0.62 0.62 0.61 0.59 0.48 0.44 0.43 0.43
0.17 0.18 0.16 0.15 0.16 0.19 0.22 0.24 0.26 0.27 0.27 0.28 0.29 0.29 0.30 0.29 0.29 0.27 0.27 0.28 0.29 0.29 0.30 0.38 0.47 0.54 0.56 0.61 0.64 0.62 0.60 0.59 0.59 0.62 0.63 0.61 0.60 0.61 0.64 0.53 0.51 0.49 0.48 0.47
0.14 0.14 0.15 0.16 0.21 0.26 0.27 0.29 0.31 0.33 0.33 0.31 0.32 0.32 0.31 0.30 0.31 0.34 0.33 0.30 0.30 0.29 0.28 0.36 0.41 0.48 0.59 0.59 0.63 0.63 0.58 0.58 0.60 0.62 0.61 0.59 0.60 0.57 0.46 0.43 0.45 0.44 0.45 0.46
0.18 0.18 0.17 0.22 0.24 0.31 0.32 0.34 0.35 0.37 0.39 0.35 0.37 0.38 0.35 0.31 0.30 0.31 0.33 0.33 0.33 0.32 0.31 0.37 0.38 0.40 0.52 0.61 0.64 0.64 0.63 0.63 0.64 0.64 0.62 0.62 0.56 0.49 0.41 0.34 0.32 0.34 0.38 0.39
0.17 0.21 0.24 0.29 0.34 0.33 0.36 0.35 0.33 0.34 0.37 0.36 0.38 0.40 0.43 0.41 0.37 0.36 0.37 0.36 0.34 0.33 0.32 0.38 0.40 0.38 0.44 0.57 0.63 0.65 0.65 0.65 0.68 0.66 0.63 0.57 0.49 0.41 0.34 0.36 0.36 0.31 0.33 0.35
0.22 0.26 0.32 0.33 0.31 0.29 0.31 0.32 0.32 0.33 0.36 0.37 0.35 0.35 0.38 0.42 0.41 0.40 0.41 0.41 0.38 0.35 0.33 0.34 0.41 0.37 0.39 0.52 0.58 0.62 0.65 0.66 0.66 0.60 0.53 0.46 0.41 0.37 0.38 0.37 0.31 0.29 0.30 0.31
0.25 0.28 0.32 0.30 0.28 0.26 0.28 0.32 0.34 0.33 0.35 0.35 0.35 0.35 0.34 0.34 0.35 0.38 0.39 0.43 0.43 0.42 0.40 0.39 0.39 0.42 0.38 0.45 0.54 0.58 0.60 0.60 0.57 0.50 0.45 0.42 0.40 0.40 0.36 0.31 0.29 0.30 0.32 0.33
0.36 0.35 0.33 0.31 0.29 0.29 0.31 0.34 0.35 0.36 0.35 0.35 0.35 0.35 0.35 0.34 0.34 0.36 0.39 0.44 0.45 0.43 0.44 0.45 0.47 0.40 0.37 0.40 0.49 0.56 0.59 0.55 0.51 0.47 0.45 0.43 0.40 0.36 0.32 0.30 0.31 0.32 0.34 0.35
0.35 0.34 0.34 0.33 0.34 0.33 0.33 0.34 0.36 0.37 0.36 0.36 0.34 0.33 0.35 0.36 0.37 0.40 0.44 0.43 0.42 0.40 0.41 0.46 0.51 0.48 0.37 0.40 0.46 0.54 0.56 0.52 0.49 0.48 0.46 0.40 0.36 0.35 0.31 0.31 0.33 0.34 0.33 0.33
0.36 0.34 0.33 0.34 0.35 0.35 0.34 0.36 0.36 0.36 0.37 0.36 0.33 0.32 0.33 0.34 0.37 0.41 0.43 0.40 0.43 0.44 0.49 0.48 0.51 0.52 0.43 0.42 0.46 0.54 0.54 0.51 0.51 0.48 0.41 0.37 0.35 0.33 0.32 0.33 0.34 0.33 0.33 0.32
0.33 0.33 0.33 0.34 0.35 0.36 0.36 0.37 0.38 0.37 0.38 0.36 0.32 0.29 0.30 0.33 0.35 0.41 0.41 0.39 0.44 0.47 0.44 0.49 0.52 0.52 0.46 0.42 0.47 0.53 0.52 0.52 0.51 0.45 0.39 0.36 0.35 0.33 0.33 0.34 0.34 0.34 0.31 0.30
0.33 0.33 0.34 0.34 0.34 0.34 0.36 0.37 0.37 0.35 0.31 0.30 0.32 0.31 0.30 0.30 0.33 0.36 0.43 0.41 0.45 0.46 0.43 0.44 0.48 0.46 0.41 0.44 0.51 0.53 0.52 0.53 0.51 0.45 0.39 0.37 0.35 0.35 0.33 0.33 0.33 0.32 0.31 0.31
0.34 0.34 0.34 0.33 0.31 0.30 0.30 0.29 0.27 0.28 0.27 0.28 0.28 0.30 0.30 0.30 0.32 0.32 0.34 0.45 0.46 0.47 0.46 0.46 0.46 0.48 0.52 0.52 0.53 0.52 0.53 0.53 0.50 0.46 0.43 0.39 0.37 0.36 0.34 0.33 0.33 0.32 0.31 0.31
0.32 0.32 0.31 0.32 0.29 0.27 0.24 0.25 0.25 0.26 0.26 0.27 0.29 0.32 0.31 0.30 0.30 0.36 0.39 0.43 0.47 0.47 0.47 0.49 0.50 0.51 0.51 0.52 0.52 0.52 0.52 0.52 0.50 0.49 0.45 0.40 0.38 0.37 0.36 0.35 0.34 0.33 0.32 0.32
0.32 0.31 0.30 0.27 0.25 0.25 0.26 0.26 0.25 0.25 0.24 0.25 0.28 0.31 0.33 0.34 0.31 0.32 0.36 0.38 0.43 0.47 0.48 0.50 0.50 0.51 0.52 0.52 0.52 0.52 0.52 0.52 0.50 0.48 0.46 0.42 0.39 0.37 0.37 0.37 0.36 0.34 0.33 0.33
0.30 0.28 0.27 0.26 0.25 0.25 0.25 0.24 0.22 0.23 0.23 0.24 0.27 0.30 0.32 0.33 0.33 0.33 0.33 0.37 0.38 0.40 0.45 0.48 0.49 0.50 0.50 0.51 0.51 0.51 0.51 0.51 0.51 0.48 0.46 0.44 0.42 0.39 0.39 0.39 0.37 0.35 0.34 0.35
0.29 0.26 0.25 0.23 0.25 0.24 0.24 0.22 0.21 0.20 0.22 0.24 0.25 0.30 0.30 0.31 0.31 0.31 0.31 0.32 0.35 0.38 0.39 0.40 0.43 0.46 0.47 0.48 0.49 0.50 0.50 0.49 0.48 0.46 0.45 0.44 0.43 0.42 0.41 0.40 0.38 0.37 0.36 0.36
Wind_Speed
43 42 39 40 39 41 42 42 41 46 44 47 46 41 40 39 39 38 35 35 33 33 32 32 34 34 32 29 28 27 26 26 25 24 23 21 20 19 18 17 17 16 16 16
44 44 44 44 45 49 47 46 48 49 52 49 45 45 44 44 40 33 33 30 32 29 34 34 32 32 35 31 29 29 29 27 26 25 24 22 21 20 19 18 16 16 16 16
43 45 44 44 52 50 50 49 48 46 49 49 49 47 47 45 39 39 39 38 38 37 35 32 35 33 31 34 35 32 31 29 28 27 25 24 22 20 20 18 17 17 16 16
33 34 37 40 39 40 42 42 33 35 35 35 40 39 39 37 36 37 33 38 40 40 41 42 37 36 39 38 35 33 31 31 29 29 26 24 22 21 19 19 19 18 18 18
29 32 37 37 31 29 32 32 30 32 33 35 37 39 33 30 31 34 37 38 39 40 40 44 45 41 38 33 35 33 28 29 29 28 27 25 23 21 20 20 20 20 20 19
26 27 26 25 23 27 29 34 31 32 33 35 36 34 29 33 37 38 39 37 37 38 40 41 40 41 39 37 35 35 33 31 31 30 30 27 26 24 22 20 21 21 21 21
32 33 32 26 27 28 30 29 31 33 34 34 33 34 38 39 38 37 38 37 37 37 37 37 38 39 39 40 40 37 35 33 33 32 31 30 27 26 24 22 21 22 23 23
28 31 35 26 28 29 32 36 36 36 37 39 40 40 39 39 38 37 37 38 38 38 36 35 35 36 39 39 37 36 36 36 35 35 33 31 29 27 25 23 23 22 23 23
27 28 22 28 31 33 35 37 39 41 43 44 45 46 45 46 47 47 45 42 40 40 40 38 37 36 37 38 37 35 36 37 36 36 34 32 30 28 26 25 24 23 24 24
31 34 36 36 37 39 41 43 42 42 44 45 47 46 47 49 49 47 46 46 44 42 42 41 38 36 35 35 36 37 37 38 36 37 34 32 31 30 27 26 25 24 24 24
32 34 35 36 37 36 37 40 43 44 45 46 47 48 50 50 50 48 47 47 45 45 43 42 40 38 36 33 35 38 39 39 38 37 36 33 32 30 28 27 27 25 25 24
30 31 33 35 35 37 38 39 40 40 41 41 41 43 44 44 44 46 46 46 45 45 44 42 40 38 36 35 35 38 40 40 38 37 36 33 31 28 27 26 26 25 25 25
30 32 33 34 34 33 33 32 34 35 35 37 38 38 39 40 40 40 41 43 43 43 43 42 39 38 39 36 35 37 39 39 38 36 35 33 30 28 25 24 24 24 24 24
30 30 31 29 26 26 27 27 31 31 32 34 36 37 38 41 40 38 36 37 40 41 41 40 39 38 35 37 37 36 38 39 37 35 33 32 30 27 25 24 23 22 23 22
26 25 24 22 21 23 23 24 25 26 27 28 29 29 29 30 30 32 32 32 34 38 40 40 39 37 35 36 37 38 39 39 37 35 32 31 28 24 23 23 22 21 20 20
22 20 19 18 19 21 22 24 25 25 25 25 26 24 24 24 23 25 27 30 31 31 36 39 40 37 37 36 38 36 40 39 36 34 32 30 26 24 23 22 21 20 20 20
19 19 17 17 19 22 23 23 21 22 22 22 23 23 23 23 23 25 26 28 31 34 36 36 39 39 37 37 36 37 37 39 35 34 32 28 25 24 23 22 20 20 20 20
16 15 16 17 20 21 20 19 19 20 21 21 22 23 24 24 26 26 28 31 34 36 36 35 37 39 39 38 36 34 36 40 37 34 30 28 26 24 23 22 20 20 19 20
13 14 15 17 17 17 16 16 17 18 19 19 21 22 22 23 23 25 29 34 32 33 37 39 36 38 39 38 36 34 38 39 37 33 29 26 25 24 23 21 20 18 18 19
13 13 14 14 14 15 15 15 15 16 17 20 21 22 23 24 24 26 29 29 23 23 23 30 36 36 37 38 37 36 38 37 37 31 27 26 25 23 22 21 19 18 18 17
14 14 13 13 14 14 14 15 16 16 18 20 21 22 23 24 25 26 27 25 19 14 11 18 28 32 32 36 37 36 37 37 35 29 27 26 25 23 22 21 19 18 17 17
14 13 13 14 14 15 16 17 18 19 20 20 21 21 23 23 23 24 24 25 14 9 2 11 21 27 29 32 37 36 36 35 32 27 26 25 24 23 22 20 19 18 18 17
12 12 13 14 15 16 17 17 18 19 19 20 20 20 21 21 21 21 20 22 17 5 3 8 15 21 26 28 34 34 32 31 28 26 25 24 24 22 21 21 19 19 19 18
11 13 14 15 15 16 16 17 18 18 19 19 18 18 18 18 18 17 17 16 16 14 3 10 12 18 25 29 30 30 28 28 26 24 23 23 22 22 22 21 21 21 20 19
13 13 14 15 16 16 18 18 19 19 19 18 18 16 16 15 15 15 14 12 10 9 10 13 14 17 19 22 23 24 23 23 23 22 22 23 23 23 22 22 22 22 21 21
13 13 13 14 15 15 17 18 18 17 17 17 16 15 14 14 14 13 12 10 7 4 1 5 8 10 13 16 18 20 20 20 21 21 22 23 23 23 24 24 24 24 23 22
15 14 14 14 15 16 16 17 17 17 16 16 16 14 14 13 12 12 11 9 7 5 4 5 7 9 11 14 15 17 19 19 20 21 23 24 24 24 25 26 25 25 24 24
Wind_Direction
263 265 264 264 261 261 260 264 265 270 270 273 276 279 280 279 277 275 269 266 262 265 262 260 261 259 256 254 253 252 252 252 250 249 242 241 239 239 244 250 254 260 264 269
264 265 266 266 264 265 266 266 267 268 270 273 275 278 277 275 275 275 276 268 267 268 269 265 269 257 248 250 251 252 252 246 247 243 243 240 238 241 244 247 253 258 263 268
265 265 266 264 263 266 267 266 269 270 272 275 274 273 274 274 271 271 267 267 263 267 268 267 266 256 254 254 253 249 247 247 244 239 238 235 237 239 243 248 252 257 263 268
271 266 258 268 267 265 267 268 272 277 277 279 280 277 276 276 274 272 271 266 265 265 266 265 262 264 266 255 252 246 245 244 239 235 233 234 236 240 244 249 252 256 261 264
262 262 269 271 274 270 270 265 273 276 279 280 282 279 273 273 272 273 273 272 268 266 261 261 265 264 260 255 248 248 244 240 235 232 233 234 237 240 245 249 250 255 258 259
259 262 265 275 265 271 270 267 271 274 277 280 282 274 269 274 275 275 275 274 269 266 264 264 265 261 259 254 253 248 246 239 236 234 233 234 236 237 245 249 251 254 255 258
254 258 263 263 267 270 264 273 275 275 277 277 275 271 273 276 274 273 271 272 271 269 265 266 267 262 258 254 253 250 242 238 234 232 231 232 234 239 244 247 252 255 256 258
255 261 265 262 268 271 274 277 277 278 277 275 274 272 272 272 270 270 272 271 267 267 265 268 268 266 261 256 251 245 238 234 233 230 230 232 234 239 243 247 250 257 257 259
259 262 261 273 276 277 277 278 277 278 277 277 276 275 274 272 272 271 270 268 267 264 265 267 267 265 261 254 246 240 235 230 231 229 230 232 234 237 242 246 250 257 257 259
266 266 271 275 277 279 280 280 281 280 281 279 278 275 272 272 271 269 266 266 265 265 263 263 262 262 260 254 242 237 233 229 228 228 230 233 235 237 241 245 252 255 258 262
271 273 275 275 278 281 283 284 283 282 281 281 279 278 275 272 270 267 265 265 263 262 262 261 258 257 256 251 243 236 231 229 228 229 230 232 235 236 242 248 252 254 258 261
268 272 274 279 283 286 286 286 286 285 284 282 281 280 278 274 271 267 265 263 261 259 259 258 255 252 250 248 243 235 230 228 228 227 227 230 232 235 243 248 250 255 258 261
270 276 279 283 285 286 286 288 291 290 287 287 285 284 280 278 274 269 265 261 259 257 257 253 251 252 245 244 241 234 229 226 224 225 225 226 228 234 243 246 249 253 257 262
273 276 278 279 280 286 289 294 298 294 290 291 292 290 286 279 273 269 267 265 259 256 254 249 249 248 244 241 238 233 225 222 220 220 221 223 227 234 238 242 247 250 256 262
271 270 274 275 281 288 294 297 302 305 304 302 301 298 293 290 276 268 268 268 266 256 253 249 246 247 244 240 231 229 223 217 217 220 222 223 226 231 236 240 242 248 255 262
267 265 267 271 284 295 298 299 300 303 308 305 307 307 301 293 287 280 275 272 269 264 255 251 243 245 239 237 229 225 218 218 217 216 217 219 225 230 235 235 238 247 254 260
256 258 261 276 291 300 301 298 298 305 310 311 310 311 308 301 295 288 282 278 274 267 258 252 242 237 235 232 228 225 219 210 214 217 213 218 225 230 230 230 238 247 255 258
244 249 262 278 291 303 302 299 301 306 309 312 313 312 309 306 302 296 292 288 279 269 258 251 243 232 229 228 225 221 213 210 213 211 213 218 223 224 225 230 240 247 256 258
246 262 273 283 289 297 302 302 305 310 312 317 321 322 322 319 313 308 305 303 289 274 257 244 236 227 223 223 219 217 210 210 209 209 214 216 217 221 224 232 240 247 254 259
260 268 277 280 288 294 301 304 310 315 319 322 323 325 328 329 328 323 322 316 302 292 262 233 221 220 217 215 214 210 206 204 201 208 211 213 216 219 226 233 238 244 252 257
262 271 272 279 287 294 297 302 306 310 318 322 324 326 328 331 333 334 336 333 324 314 258 219 209 207 209 207 206 202 202 202 203 204 208 212 215 219 226 231 237 243 251 255
265 264 269 278 284 291 295 299 304 306 311 316 319 325 329 332 334 341 345 349 331 333 283 194 195 198 200 197 195 196 194 197 200 204 208 212 216 220 226 230 236 243 249 252
261 267 273 280 287 292 296 299 304 306 308 312 314 319 325 331 336 342 350 359 4 347 162 167 175 183 187 193 188 187 190 195 200 205 211 215 218 222 228 232 238 244 248 252
268 273 277 284 287 291 298 303 306 309 310 311 311 313 320 325 333 342 349 359 15 35 124 165 170 165 166 173 180 188 194 200 204 209 214 218 222 227 231 235 240 245 249 251
270 276 280 284 289 291 296 300 302 305 311 310 309 310 316 320 323 331 339 351 14 41 80 120 142 156 168 177 185 191 196 203 209 215 220 225 228 232 236 239 243 247 249 252
267 276 283 288 294 298 299 300 300 303 306 309 307 305 308 313 317 319 326 332 344 359 127 165 168 175 186 194 198 200 206 212 218 224 229 232 234 239 241 243 246 249 251 253
265 273 282 289 292 300 305 304 300 301 303 306 306 303 302 305 310 313 311 310 306 296 264 227 216 212 209 207 210 216 221 225 229 235 238 240 243 244 244 245 248 250 252 253